27-06-2022, 00:00:02,    194,    2.2,   10.2,   0.00,   0.00, 1010.6,   77.5, -999.0
27-06-2022, 00:00:12,    218,    2.2,   10.2,   0.00,   0.00, 1010.6,   77.4, -999.0
27-06-2022, 00:00:22,    146,    0.9,   10.2,   0.00,   0.00, 1010.6,   77.6, -999.0
27-06-2022, 00:00:32,    143,    1.5,   10.2,   0.00,   0.00, 1010.6,   77.5, -999.0
27-06-2022, 00:00:42,    155,    0.3,   10.2,   0.00,   0.00, 1010.5,   77.4, -999.0
27-06-2022, 00:00:52,    155,    0.0,   10.0,   0.00,   0.00, 1010.4,   77.1, -999.0
27-06-2022, 00:01:02,    155,    0.0,   10.1,   0.00,   0.00, 1010.4,   77.3, -999.0
27-06-2022, 00:01:12,    155,    0.0,   10.1,   0.00,   0.00, 1010.5,   77.2, -999.0
27-06-2022, 00:01:22,    157,    0.0,   10.1,   0.00,   0.00, 1010.4,   77.2, -999.0
27-06-2022, 00:01:31,    159,    0.0,   10.1,   0.00,   0.00, 1010.4,   77.3, -999.0
27-06-2022, 00:01:41,    159,    0.0,   10.1,   0.00,   0.00, 1010.4,   77.4, -999.0
27-06-2022, 00:01:52,    159,    0.0,   10.1,   0.00,   0.00, 1010.4,   77.3, -999.0
27-06-2022, 00:02:01,    159,    0.0,   10.1,   0.00,   0.00, 1010.4,   77.4, -999.0
27-06-2022, 00:02:11,    149,    0.3,   10.1,   0.00,   0.00, 1010.5,   77.6, -999.0
27-06-2022, 00:02:21,    149,    0.1,   10.2,   0.00,   0.00, 1010.5,   77.6, -999.0
27-06-2022, 00:02:31,    149,    0.0,   10.1,   0.00,   0.00, 1010.4,   77.3, -999.0
27-06-2022, 00:02:41,    190,    0.0,   10.1,   0.00,   0.00, 1010.5,   77.4, -999.0
27-06-2022, 00:02:51,    174,    0.7,   10.2,   0.00,   0.00, 1010.6,   77.6, -999.0
27-06-2022, 00:03:01,    173,    0.1,   10.2,   0.00,   0.00, 1010.5,   77.5, -999.0
27-06-2022, 00:03:11,    173,    0.0,   10.0,   0.00,   0.00, 1010.4,   77.3, -999.0
27-06-2022, 00:03:21,    190,    0.1,   10.1,   0.00,   0.00, 1010.5,   77.6, -999.0
27-06-2022, 00:03:31,    228,    0.7,   10.3,   0.00,   0.00, 1010.6,   77.6, -999.0
27-06-2022, 00:03:41,    207,    0.8,   10.2,   0.00,   0.00, 1010.6,   77.7, -999.0
27-06-2022, 00:03:51,    198,    0.3,   10.1,   0.00,   0.00, 1010.5,   77.5, -999.0
27-06-2022, 00:04:01,    202,    0.0,   10.1,   0.00,   0.00, 1010.5,   77.4, -999.0
27-06-2022, 00:04:10,    201,    0.0,   10.1,   0.00,   0.00, 1010.4,   77.3, -999.0
27-06-2022, 00:04:21,    203,    0.0,   10.1,   0.00,   0.00, 1010.5,   77.4, -999.0
27-06-2022, 00:04:31,    202,    0.1,   10.1,   0.00,   0.00, 1010.5,   77.5, -999.0
27-06-2022, 00:04:40,    202,    0.0,   10.1,   0.00,   0.00, 1010.4,   77.4, -999.0
27-06-2022, 00:04:50,    188,    0.2,   10.1,   0.00,   0.00, 1010.5,   77.6, -999.0
27-06-2022, 00:05:01,    192,    0.1,   10.1,   0.00,   0.00, 1010.5,   77.6, -999.0
27-06-2022, 00:05:10,    191,    0.4,   10.0,   0.00,   0.00, 1010.5,   77.8, -999.0
27-06-2022, 00:05:20,    159,    1.0,   10.1,   0.00,   0.00, 1010.6,   77.8, -999.0
27-06-2022, 00:05:30,    167,    0.2,   10.1,   0.00,   0.00, 1010.5,   77.8, -999.0
27-06-2022, 00:05:40,    161,    0.4,   10.1,   0.00,   0.00, 1010.6,   77.8, -999.0
27-06-2022, 00:05:50,    151,    0.1,   10.0,   0.00,   0.00, 1010.5,   77.8, -999.0
27-06-2022, 00:06:00,    175,    0.0,   10.0,   0.00,   0.00, 1010.5,   77.7, -999.0
27-06-2022, 00:06:10,    175,    0.0,   10.0,   0.00,   0.00, 1010.5,   77.6, -999.0
27-06-2022, 00:06:20,    175,    0.0,   10.1,   0.00,   0.00, 1010.4,   77.6, -999.0
27-06-2022, 00:06:30,    175,    0.1,   10.0,   0.00,   0.00, 1010.5,   77.8, -999.0
27-06-2022, 00:06:40,    182,    0.0,   10.0,   0.00,   0.00, 1010.4,   77.7, -999.0
27-06-2022, 00:06:50,    181,    0.0,   10.1,   0.00,   0.00, 1010.5,   77.7, -999.0
27-06-2022, 00:07:00,    171,    0.4,   10.1,   0.00,   0.00, 1010.5,   77.9, -999.0
27-06-2022, 00:07:10,    171,    0.0,   10.0,   0.00,   0.00, 1010.4,   77.6, -999.0
27-06-2022, 00:07:19,    182,    0.1,   10.0,   0.00,   0.00, 1010.5,   77.8, -999.0
27-06-2022, 00:07:30,    185,    0.0,   10.0,   0.00,   0.00, 1010.5,   77.7, -999.0
27-06-2022, 00:07:40,    194,    0.5,   10.0,   0.00,   0.00, 1010.6,   78.0, -999.0
27-06-2022, 00:07:49,    194,    0.4,   10.1,   0.00,   0.00, 1010.5,   77.9, -999.0
27-06-2022, 00:08:00,    194,    0.0,   10.0,   0.00,   0.00, 1010.5,   77.8, -999.0
27-06-2022, 00:08:10,    194,    0.0,   10.0,   0.00,   0.00, 1010.5,   77.9, -999.0
27-06-2022, 00:08:19,    192,    0.2,   10.1,   0.00,   0.00, 1010.5,   77.8, -999.0
27-06-2022, 00:08:29,    194,    0.2,   10.0,   0.00,   0.00, 1010.5,   77.9, -999.0
27-06-2022, 00:08:39,    205,    0.2,   10.0,   0.00,   0.00, 1010.5,   78.0, -999.0
27-06-2022, 00:08:49,    203,    0.2,   10.1,   0.00,   0.00, 1010.5,   78.1, -999.0
27-06-2022, 00:08:59,    168,    0.2,   10.0,   0.00,   0.00, 1010.5,   77.9, -999.0
27-06-2022, 00:09:09,    168,    0.3,   10.1,   0.00,   0.00, 1010.5,   78.1, -999.0
27-06-2022, 00:09:19,    181,    0.3,   10.1,   0.00,   0.00, 1010.5,   78.1, -999.0
27-06-2022, 00:09:29,    164,    0.4,   10.0,   0.00,   0.00, 1010.6,   78.2, -999.0
27-06-2022, 00:09:39,    164,    0.0,   10.0,   0.00,   0.00, 1010.5,   77.9, -999.0
27-06-2022, 00:09:49,    155,    0.0,   10.0,   0.00,   0.00, 1010.5,   77.8, -999.0
27-06-2022, 00:09:59,    170,    1.1,   10.0,   0.00,   0.00, 1010.6,   78.2, -999.0
27-06-2022, 00:10:09,    222,    1.0,   10.1,   0.00,   0.00, 1010.6,   78.2, -999.0
27-06-2022, 00:10:19,    219,    0.1,   10.0,   0.00,   0.00, 1010.5,   78.1, -999.0
27-06-2022, 00:10:29,    167,    0.0,   10.0,   0.00,   0.00, 1010.5,   78.0, -999.0
27-06-2022, 00:10:39,    137,    0.2,   10.0,   0.00,   0.00, 1010.5,   78.1, -999.0
27-06-2022, 00:10:49,    158,    2.2,   10.0,   0.00,   0.00, 1010.5,   78.5, -999.0
27-06-2022, 00:10:58,    184,    0.6,   10.1,   0.00,   0.00, 1010.6,   78.3, -999.0
27-06-2022, 00:11:09,    182,    0.2,   10.1,   0.00,   0.00, 1010.6,   78.3, -999.0
27-06-2022, 00:11:18,    188,    0.0,   10.0,   0.00,   0.00, 1010.5,   78.2, -999.0
27-06-2022, 00:11:28,    189,    0.3,   10.0,   0.00,   0.00, 1010.5,   78.3, -999.0
27-06-2022, 00:11:39,    160,    1.1,   10.0,   0.00,   0.00, 1010.6,   78.4, -999.0
27-06-2022, 00:11:48,    160,    0.6,   10.1,   0.00,   0.00, 1010.6,   78.5, -999.0
27-06-2022, 00:11:58,    160,    0.4,    9.9,   0.00,   0.00, 1010.5,   78.5, -999.0
27-06-2022, 00:12:08,    212,    0.0,   10.1,   0.00,   0.00, 1010.5,   78.3, -999.0
27-06-2022, 00:12:18,    183,    2.2,   10.1,   0.00,   0.00, 1010.6,   78.5, -999.0
27-06-2022, 00:12:28,    183,    0.5,   10.1,   0.00,   0.00, 1010.6,   78.4, -999.0
27-06-2022, 00:12:38,    183,    0.3,   10.1,   0.00,   0.00, 1010.6,   78.5, -999.0
27-06-2022, 00:12:48,    182,    0.2,   10.1,   0.00,   0.00, 1010.5,   78.3, -999.0
27-06-2022, 00:12:58,    183,    0.0,   10.0,   0.00,   0.00, 1010.4,   78.3, -999.0
27-06-2022, 00:13:08,    183,    0.1,   10.0,   0.00,   0.00, 1010.5,   78.2, -999.0
27-06-2022, 00:13:18,    182,    0.3,   10.0,   0.00,   0.00, 1010.5,   78.3, -999.0
27-06-2022, 00:13:28,    205,    0.2,   10.0,   0.00,   0.00, 1010.5,   78.4, -999.0
27-06-2022, 00:13:38,    203,    0.0,   10.1,   0.00,   0.00, 1010.5,   78.2, -999.0
27-06-2022, 00:13:48,    172,    0.4,   10.0,   0.00,   0.00, 1010.5,   78.4, -999.0
27-06-2022, 00:13:57,    172,    0.2,   10.1,   0.00,   0.00, 1010.5,   78.3, -999.0
27-06-2022, 00:14:07,    172,    0.0,   10.0,   0.00,   0.00, 1010.4,   78.2, -999.0
27-06-2022, 00:14:18,    176,    0.0,   10.0,   0.00,   0.00, 1010.5,   78.3, -999.0
27-06-2022, 00:14:27,    179,    0.0,   10.0,   0.00,   0.00, 1010.5,   78.4, -999.0
27-06-2022, 00:14:37,    179,    0.0,   10.0,   0.00,   0.00, 1010.4,   78.3, -999.0
27-06-2022, 00:14:48,    179,    0.0,   10.0,   0.00,   0.00, 1010.4,   78.3, -999.0
27-06-2022, 00:14:57,    180,    0.0,   10.0,   0.00,   0.00, 1010.4,   78.2, -999.0
27-06-2022, 00:15:07,    262,    1.2,   10.1,   0.00,   0.00, 1010.6,   78.6, -999.0
27-06-2022, 00:15:17,    210,    0.5,    9.9,   0.00,   0.00, 1010.5,   78.4, -999.0
27-06-2022, 00:15:27,    211,    0.0,    9.9,   0.00,   0.00, 1010.4,   78.2, -999.0
27-06-2022, 00:15:37,    207,    0.0,   10.0,   0.00,   0.00, 1010.4,   78.4, -999.0
27-06-2022, 00:15:47,    191,    0.3,   10.0,   0.00,   0.00, 1010.5,   78.5, -999.0
27-06-2022, 00:15:57,    197,    0.1,   10.0,   0.00,   0.00, 1010.5,   78.4, -999.0
27-06-2022, 00:16:07,    204,    0.2,   10.0,   0.00,   0.00, 1010.5,   78.4, -999.0
27-06-2022, 00:16:17,    229,    2.3,   10.1,   0.00,   0.00, 1010.6,   78.6, -999.0
27-06-2022, 00:16:27,    190,    0.9,   10.0,   0.00,   0.00, 1010.5,   78.6, -999.0
27-06-2022, 00:16:37,    200,    0.2,   10.0,   0.00,   0.00, 1010.5,   78.6, -999.0
27-06-2022, 00:16:47,    200,    0.0,   10.0,   0.00,   0.00, 1010.5,   78.5, -999.0
27-06-2022, 00:16:57,    196,    0.0,    9.9,   0.00,   0.00, 1010.4,   78.4, -999.0
27-06-2022, 00:17:06,    195,    0.1,   10.1,   0.00,   0.00, 1010.5,   78.6, -999.0
27-06-2022, 00:17:17,    194,    0.0,    9.9,   0.00,   0.00, 1010.4,   78.5, -999.0
27-06-2022, 00:17:27,    205,    0.4,    9.9,   0.00,   0.00, 1010.5,   78.7, -999.0
27-06-2022, 00:17:36,    230,    1.0,   10.1,   0.00,   0.00, 1010.5,   78.8, -999.0
27-06-2022, 00:17:46,    229,    0.0,   10.0,   0.00,   0.00, 1010.4,   78.3, -999.0
27-06-2022, 00:17:57,    200,    0.6,   10.0,   0.00,   0.00, 1010.5,   78.7, -999.0
27-06-2022, 00:18:06,    211,    1.0,   10.1,   0.00,   0.00, 1010.5,   78.9, -999.0
27-06-2022, 00:18:16,    212,    0.5,    9.9,   0.00,   0.00, 1010.5,   78.8, -999.0
27-06-2022, 00:18:26,    211,    0.0,   10.0,   0.00,   0.00, 1010.4,   78.6, -999.0
27-06-2022, 00:18:36,    210,    0.0,    9.9,   0.00,   0.00, 1010.4,   78.6, -999.0
27-06-2022, 00:18:46,    215,    0.8,   10.1,   0.00,   0.00, 1010.5,   78.8, -999.0
27-06-2022, 00:18:56,    212,    2.6,   10.0,   0.00,   0.00, 1010.5,   78.8, -999.0
27-06-2022, 00:19:06,    197,    1.2,   10.1,   0.00,   0.00, 1010.5,   78.9, -999.0
27-06-2022, 00:19:16,    205,    0.4,   10.0,   0.00,   0.00, 1010.5,   78.8, -999.0
27-06-2022, 00:19:26,    207,    0.6,   10.0,   0.00,   0.00, 1010.5,   78.9, -999.0
27-06-2022, 00:19:36,    133,    1.3,   10.0,   0.00,   0.00, 1010.5,   78.9, -999.0
27-06-2022, 00:19:46,    208,    0.6,   10.0,   0.00,   0.00, 1010.5,   79.0, -999.0
27-06-2022, 00:19:56,    208,    0.1,   10.0,   0.00,   0.00, 1010.4,   78.7, -999.0
27-06-2022, 00:20:06,    177,    0.6,   10.0,   0.00,   0.00, 1010.5,   78.8, -999.0
27-06-2022, 00:20:15,    217,    0.9,   10.1,   0.00,   0.00, 1010.5,   79.0, -999.0
27-06-2022, 00:20:26,    161,    1.3,   10.0,   0.00,   0.00, 1010.5,   79.0, -999.0
27-06-2022, 00:20:36,    204,    0.9,   10.1,   0.00,   0.00, 1010.5,   79.0, -999.0
27-06-2022, 00:20:45,    169,    1.7,   10.0,   0.00,   0.00, 1010.6,   79.0, -999.0
27-06-2022, 00:20:55,    211,    1.6,   10.0,   0.00,   0.00, 1010.5,   79.2, -999.0
27-06-2022, 00:21:05,    210,    0.8,   10.1,   0.00,   0.00, 1010.6,   79.3, -999.0
27-06-2022, 00:21:15,    203,    1.1,   10.1,   0.00,   0.00, 1010.6,   79.3, -999.0
27-06-2022, 00:21:25,    211,    0.5,   10.1,   0.00,   0.00, 1010.6,   79.2, -999.0
27-06-2022, 00:21:35,    210,    0.1,   10.0,   0.00,   0.00, 1010.5,   79.0, -999.0
27-06-2022, 00:21:45,    210,    0.5,   10.0,   0.00,   0.00, 1010.6,   79.0, -999.0
27-06-2022, 00:21:55,    183,    0.4,   10.0,   0.00,   0.00, 1010.5,   79.1, -999.0
27-06-2022, 00:22:05,    154,    0.6,   10.0,   0.00,   0.00, 1010.5,   79.1, -999.0
27-06-2022, 00:22:15,    166,    0.0,   10.0,   0.00,   0.00, 1010.4,   78.9, -999.0
27-06-2022, 00:22:25,    225,    1.2,   10.0,   0.00,   0.00, 1010.6,   79.1, -999.0
27-06-2022, 00:22:35,    233,    1.4,   10.0,   0.00,   0.00, 1010.5,   79.0, -999.0
27-06-2022, 00:22:45,    187,    1.3,   10.1,   0.00,   0.00, 1010.6,   79.2, -999.0
27-06-2022, 00:22:56,    186,    0.1,   10.0,   0.00,   0.00, 1010.5,   79.2, -999.0
27-06-2022, 00:23:05,    195,    2.2,   10.1,   0.00,   0.00, 1010.5,   79.3, -999.0
27-06-2022, 00:23:15,    217,    1.2,   10.0,   0.00,   0.00, 1010.5,   79.1, -999.0
27-06-2022, 00:23:25,    215,    1.1,   10.1,   0.00,   0.00, 1010.6,   79.3, -999.0
27-06-2022, 00:23:35,    162,    3.1,   10.0,   0.00,   0.00, 1010.6,   79.3, -999.0
27-06-2022, 00:23:44,    205,    2.3,   10.0,   0.00,   0.00, 1010.6,   79.4, -999.0
27-06-2022, 00:23:54,    190,    2.8,   10.0,   0.00,   0.00, 1010.5,   79.5, -999.0
27-06-2022, 00:24:05,    226,    0.7,   10.0,   0.00,   0.00, 1010.5,   79.1, -999.0
27-06-2022, 00:24:14,    191,    0.0,   10.0,   0.00,   0.00, 1010.5,   79.2, -999.0
27-06-2022, 00:24:24,    196,    0.5,   10.0,   0.00,   0.00, 1010.5,   79.2, -999.0
27-06-2022, 00:24:34,    219,    0.6,   10.0,   0.00,   0.00, 1010.5,   79.4, -999.0
27-06-2022, 00:24:44,    207,    2.9,   10.1,   0.00,   0.00, 1010.6,   79.2, -999.0
27-06-2022, 00:24:54,    197,    1.0,   10.0,   0.00,   0.00, 1010.6,   79.4, -999.0
27-06-2022, 00:25:04,    239,    3.2,   10.0,   0.00,   0.00, 1010.6,   79.4, -999.0
27-06-2022, 00:25:14,    192,    2.7,   10.1,   0.00,   0.00, 1010.6,   79.5, -999.0
27-06-2022, 00:25:24,    199,    0.6,   10.0,   0.00,   0.00, 1010.5,   79.3, -999.0
27-06-2022, 00:25:34,    190,    1.3,   10.1,   0.00,   0.00, 1010.6,   79.3, -999.0
27-06-2022, 00:25:44,    184,    0.7,    9.9,   0.00,   0.00, 1010.6,   79.4, -999.0
27-06-2022, 00:25:54,    198,    0.2,   10.0,   0.00,   0.00, 1010.5,   79.2, -999.0
27-06-2022, 00:26:04,    204,    2.1,   10.0,   0.00,   0.00, 1010.6,   79.4, -999.0
27-06-2022, 00:26:14,    205,    1.0,   10.1,   0.00,   0.00, 1010.5,   79.4, -999.0
27-06-2022, 00:26:23,    212,    1.0,   10.1,   0.00,   0.00, 1010.5,   79.4, -999.0
27-06-2022, 00:26:34,    205,    0.6,   10.1,   0.00,   0.00, 1010.6,   79.4, -999.0
27-06-2022, 00:26:44,    207,    0.4,   10.1,   0.00,   0.00, 1010.6,   79.6, -999.0
27-06-2022, 00:26:53,    207,    0.3,   10.1,   0.00,   0.00, 1010.5,   79.6, -999.0
27-06-2022, 00:27:03,    222,    1.7,   10.0,   0.00,   0.00, 1010.5,   79.4, -999.0
27-06-2022, 00:27:14,    166,    1.3,   10.0,   0.00,   0.00, 1010.5,   79.6, -999.0
27-06-2022, 00:27:23,    169,    0.8,   10.0,   0.00,   0.00, 1010.6,   79.7, -999.0
27-06-2022, 00:27:33,    169,    0.1,    9.9,   0.00,   0.00, 1010.4,   79.3, -999.0
27-06-2022, 00:27:43,    222,    1.2,   10.0,   0.00,   0.00, 1010.5,   79.3, -999.0
27-06-2022, 00:27:53,    205,    0.5,   10.0,   0.00,   0.00, 1010.5,   79.4, -999.0
27-06-2022, 00:28:03,    205,    0.0,   10.0,   0.00,   0.00, 1010.4,   79.1, -999.0
27-06-2022, 00:28:13,    195,    0.3,   10.0,   0.00,   0.00, 1010.5,   79.3, -999.0
27-06-2022, 00:28:23,    203,    1.8,   10.1,   0.00,   0.00, 1010.6,   79.5, -999.0
27-06-2022, 00:28:33,    214,    0.4,   10.1,   0.00,   0.00, 1010.6,   79.4, -999.0
27-06-2022, 00:28:43,    216,    0.0,    9.9,   0.00,   0.00, 1010.4,   79.3, -999.0
27-06-2022, 00:28:53,    213,    0.0,   10.0,   0.00,   0.00, 1010.4,   79.1, -999.0
27-06-2022, 00:29:03,    213,    0.1,    9.9,   0.00,   0.00, 1010.4,   79.2, -999.0
27-06-2022, 00:29:13,    184,    1.4,   10.0,   0.00,   0.00, 1010.6,   79.5, -999.0
27-06-2022, 00:29:23,    195,    0.7,   10.0,   0.00,   0.00, 1010.6,   79.5, -999.0
27-06-2022, 00:29:33,    191,    0.6,   10.0,   0.00,   0.00, 1010.6,   79.5, -999.0
27-06-2022, 00:29:43,    227,    0.3,   10.0,   0.00,   0.00, 1010.5,   79.2, -999.0
27-06-2022, 00:29:53,    229,    1.7,   10.0,   0.00,   0.00, 1010.5,   79.4, -999.0
27-06-2022, 00:30:02,    178,    0.4,   10.0,   0.00,   0.00, 1010.5,   79.5, -999.0
27-06-2022, 00:30:13,    177,    0.6,   10.0,   0.00,   0.00, 1010.5,   79.4, -999.0
27-06-2022, 00:30:26,    176,    0.0,    9.9,   0.00,   0.00, 1010.5,   79.3, -999.0
27-06-2022, 00:30:33,    176,    0.3,    9.9,   0.00,   0.00, 1010.5,   79.5, -999.0
27-06-2022, 00:30:42,    194,    1.0,   10.0,   0.00,   0.00, 1010.6,   79.6, -999.0
27-06-2022, 00:30:52,    237,    1.2,   10.0,   0.00,   0.00, 1010.5,   79.6, -999.0
27-06-2022, 00:31:02,    187,    2.7,    9.9,   0.00,   0.00, 1010.5,   79.7, -999.0
27-06-2022, 00:31:12,    207,    0.7,    9.9,   0.00,   0.00, 1010.5,   79.6, -999.0
27-06-2022, 00:31:22,    193,    0.9,   10.0,   0.00,   0.00, 1010.6,   80.0, -999.0
27-06-2022, 00:31:32,    193,    0.0,    9.9,   0.00,   0.00, 1010.4,   79.4, -999.0
27-06-2022, 00:31:43,    189,    0.5,   10.0,   0.00,   0.00, 1010.6,   79.8, -999.0
27-06-2022, 00:31:52,    189,    0.0,    9.9,   0.00,   0.00, 1010.4,   79.4, -999.0
27-06-2022, 00:32:02,    189,    0.1,    9.9,   0.00,   0.00, 1010.5,   79.4, -999.0
27-06-2022, 00:32:12,    189,    0.0,    9.9,   0.00,   0.00, 1010.4,   79.4, -999.0
27-06-2022, 00:32:22,    199,    1.8,   10.0,   0.00,   0.00, 1010.5,   79.7, -999.0
27-06-2022, 00:32:32,    202,    1.2,   10.0,   0.00,   0.00, 1010.5,   79.7, -999.0
27-06-2022, 00:32:42,    203,    0.4,    9.9,   0.00,   0.00, 1010.5,   79.6, -999.0
27-06-2022, 00:32:51,    165,    0.6,   10.0,   0.00,   0.00, 1010.5,   79.9, -999.0
27-06-2022, 00:33:02,    177,    0.1,    9.8,   0.00,   0.00, 1010.4,   79.5, -999.0
27-06-2022, 00:33:12,    181,    0.3,    9.9,   0.00,   0.00, 1010.5,   79.7, -999.0
27-06-2022, 00:33:21,    188,    0.1,    9.9,   0.00,   0.00, 1010.5,   79.6, -999.0
27-06-2022, 00:33:31,    195,    0.6,    9.9,   0.00,   0.00, 1010.5,   79.6, -999.0
27-06-2022, 00:33:42,    197,    0.2,    9.9,   0.00,   0.00, 1010.5,   79.6, -999.0
27-06-2022, 00:33:51,    216,    1.9,   10.0,   0.00,   0.00, 1010.6,   79.8, -999.0
27-06-2022, 00:34:01,    205,    0.3,    9.9,   0.00,   0.00, 1010.5,   79.8, -999.0
27-06-2022, 00:34:11,    190,    0.5,    9.9,   0.00,   0.00, 1010.6,   79.9, -999.0
27-06-2022, 00:34:21,    189,    0.1,    9.9,   0.00,   0.00, 1010.4,   79.6, -999.0
27-06-2022, 00:34:31,    192,    0.3,    9.9,   0.00,   0.00, 1010.5,   79.8, -999.0
27-06-2022, 00:34:41,    152,    1.2,    9.9,   0.00,   0.00, 1010.5,   79.8, -999.0
27-06-2022, 00:34:51,    167,    1.3,   10.0,   0.00,   0.00, 1010.6,   80.0, -999.0
27-06-2022, 00:35:01,    183,    0.5,    9.9,   0.00,   0.00, 1010.5,   80.2, -999.0
27-06-2022, 00:35:11,    182,    0.0,    9.9,   0.00,   0.00, 1010.5,   79.8, -999.0
27-06-2022, 00:35:21,    182,    0.2,    9.9,   0.00,   0.00, 1010.5,   79.9, -999.0
27-06-2022, 00:35:31,    201,    0.8,    9.9,   0.00,   0.00, 1010.6,   80.0, -999.0
27-06-2022, 00:35:41,    204,    0.1,    9.9,   0.00,   0.00, 1010.5,   80.1, -999.0
27-06-2022, 00:35:51,    193,    0.8,   10.0,   0.00,   0.00, 1010.5,   80.1, -999.0
27-06-2022, 00:36:00,    197,    0.5,    9.9,   0.00,   0.00, 1010.5,   80.1, -999.0
27-06-2022, 00:36:11,    198,    0.0,    9.9,   0.00,   0.00, 1010.5,   79.9, -999.0
27-06-2022, 00:36:21,    198,    0.0,    9.9,   0.00,   0.00, 1010.4,   79.8, -999.0
27-06-2022, 00:36:30,    197,    0.0,    9.9,   0.00,   0.00, 1010.4,   79.7, -999.0
27-06-2022, 00:36:40,    198,    0.0,    9.8,   0.00,   0.00, 1010.4,   79.8, -999.0
27-06-2022, 00:36:51,    198,    0.0,    9.9,   0.00,   0.00, 1010.4,   79.8, -999.0
27-06-2022, 00:37:00,    201,    0.2,    9.9,   0.00,   0.00, 1010.6,   80.0, -999.0
27-06-2022, 00:37:10,    201,    0.0,    9.8,   0.00,   0.00, 1010.5,   79.7, -999.0
27-06-2022, 00:37:20,    191,    0.3,    9.9,   0.00,   0.00, 1010.5,   80.2, -999.0
27-06-2022, 00:37:30,    152,    0.6,    9.9,   0.00,   0.00, 1010.6,   80.2, -999.0
27-06-2022, 00:37:40,    238,    0.8,    9.8,   0.00,   0.00, 1010.5,   80.1, -999.0
27-06-2022, 00:37:50,    184,    1.7,    9.9,   0.00,   0.00, 1010.6,   80.3, -999.0
27-06-2022, 00:38:00,    187,    0.6,    9.9,   0.00,   0.00, 1010.6,   80.3, -999.0
27-06-2022, 00:38:10,    186,    0.1,    9.8,   0.00,   0.00, 1010.5,   80.3, -999.0
27-06-2022, 00:38:20,    213,    0.4,    9.8,   0.00,   0.00, 1010.5,   80.2, -999.0
27-06-2022, 00:38:30,    214,    0.1,    9.9,   0.00,   0.00, 1010.5,   80.2, -999.0
27-06-2022, 00:38:40,    212,    0.0,    9.8,   0.00,   0.00, 1010.5,   80.2, -999.0
27-06-2022, 00:38:50,    212,    0.0,    9.8,   0.00,   0.00, 1010.4,   80.0, -999.0
27-06-2022, 00:39:00,    212,    0.0,    9.7,   0.00,   0.00, 1010.4,   80.0, -999.0
27-06-2022, 00:39:10,    211,    0.0,    9.8,   0.00,   0.00, 1010.4,   80.0, -999.0
27-06-2022, 00:39:20,    211,    0.0,    9.8,   0.00,   0.00, 1010.4,   80.1, -999.0
27-06-2022, 00:39:30,    211,    0.0,    9.7,   0.00,   0.00, 1010.5,   80.0, -999.0
27-06-2022, 00:39:39,    197,    0.6,    9.8,   0.00,   0.00, 1010.5,   80.5, -999.0
27-06-2022, 00:39:50,    196,    0.0,    9.7,   0.00,   0.00, 1010.5,   80.3, -999.0
27-06-2022, 00:39:59,    197,    0.0,    9.8,   0.00,   0.00, 1010.4,   80.2, -999.0
27-06-2022, 00:40:09,    197,    0.0,    9.8,   0.00,   0.00, 1010.4,   80.2, -999.0
27-06-2022, 00:40:19,    187,    0.9,    9.8,   0.00,   0.00, 1010.5,   80.6, -999.0
27-06-2022, 00:40:29,    186,    0.4,    9.8,   0.00,   0.00, 1010.5,   80.3, -999.0
27-06-2022, 00:40:39,    186,    0.0,    9.8,   0.00,   0.00, 1010.5,   80.3, -999.0
27-06-2022, 00:40:49,    182,    0.7,    9.9,   0.00,   0.00, 1010.6,   80.6, -999.0
27-06-2022, 00:40:59,    182,    0.6,    9.8,   0.00,   0.00, 1010.6,   80.5, -999.0
27-06-2022, 00:41:09,    181,    0.0,    9.8,   0.00,   0.00, 1010.5,   80.2, -999.0
27-06-2022, 00:41:19,    172,    1.8,    9.8,   0.00,   0.00, 1010.6,   80.7, -999.0
27-06-2022, 00:41:29,    171,    0.4,    9.8,   0.00,   0.00, 1010.5,   80.6, -999.0
27-06-2022, 00:41:39,    216,    0.9,    9.8,   0.00,   0.00, 1010.6,   80.9, -999.0
27-06-2022, 00:41:49,    218,    0.4,    9.8,   0.00,   0.00, 1010.5,   80.9, -999.0
27-06-2022, 00:41:59,    210,    0.1,    9.7,   0.00,   0.00, 1010.5,   80.4, -999.0
27-06-2022, 00:42:09,    207,    0.9,    9.8,   0.00,   0.00, 1010.5,   80.7, -999.0
27-06-2022, 00:42:19,    186,    1.2,    9.9,   0.00,   0.00, 1010.6,   80.8, -999.0
27-06-2022, 00:42:29,    185,    0.1,    9.7,   0.00,   0.00, 1010.5,   80.6, -999.0
27-06-2022, 00:42:38,    204,    0.6,    9.8,   0.00,   0.00, 1010.5,   80.7, -999.0
27-06-2022, 00:42:48,    201,    1.0,    9.8,   0.00,   0.00, 1010.6,   81.2, -999.0
27-06-2022, 00:42:59,    199,    0.1,    9.8,   0.00,   0.00, 1010.6,   80.7, -999.0
27-06-2022, 00:43:08,    197,    0.0,    9.7,   0.00,   0.00, 1010.5,   80.5, -999.0
27-06-2022, 00:43:18,    201,    0.4,    9.8,   0.00,   0.00, 1010.5,   80.9, -999.0
27-06-2022, 00:43:29,    201,    0.2,    9.8,   0.00,   0.00, 1010.5,   80.8, -999.0
27-06-2022, 00:43:38,    172,    0.5,    9.6,   0.00,   0.00, 1010.6,   80.8, -999.0
27-06-2022, 00:43:48,    171,    0.3,    9.8,   0.00,   0.00, 1010.6,   80.9, -999.0
27-06-2022, 00:43:58,    171,    0.0,    9.8,   0.00,   0.00, 1010.5,   80.8, -999.0
27-06-2022, 00:44:08,    171,    0.0,    9.8,   0.00,   0.00, 1010.5,   80.8, -999.0
27-06-2022, 00:44:18,    205,    0.5,    9.8,   0.00,   0.00, 1010.5,   81.0, -999.0
27-06-2022, 00:44:28,    193,    0.2,    9.7,   0.00,   0.00, 1010.5,   80.9, -999.0
27-06-2022, 00:44:38,    180,    0.5,    9.8,   0.00,   0.00, 1010.6,   81.1, -999.0
27-06-2022, 00:44:48,    186,    0.1,    9.8,   0.00,   0.00, 1010.5,   81.1, -999.0
27-06-2022, 00:44:58,    184,    0.6,    9.8,   0.00,   0.00, 1010.6,   81.2, -999.0
27-06-2022, 00:45:08,    184,    0.8,    9.8,   0.00,   0.00, 1010.6,   81.1, -999.0
27-06-2022, 00:45:18,    183,    0.5,    9.9,   0.00,   0.00, 1010.6,   81.2, -999.0
27-06-2022, 00:45:28,    159,    0.9,    9.9,   0.00,   0.00, 1010.6,   81.5, -999.0
27-06-2022, 00:45:38,    167,    0.7,    9.9,   0.00,   0.00, 1010.6,   81.1, -999.0
27-06-2022, 00:45:47,    187,    0.3,    9.8,   0.00,   0.00, 1010.5,   80.9, -999.0
27-06-2022, 00:45:58,    176,    0.3,    9.8,   0.00,   0.00, 1010.5,   80.8, -999.0
27-06-2022, 00:46:08,    178,    0.0,    9.7,   0.00,   0.00, 1010.5,   80.7, -999.0
27-06-2022, 00:46:17,    176,    0.0,    9.7,   0.00,   0.00, 1010.4,   80.7, -999.0
27-06-2022, 00:46:27,    177,    0.0,    9.7,   0.00,   0.00, 1010.4,   80.5, -999.0
27-06-2022, 00:46:38,    177,    0.0,    9.7,   0.00,   0.00, 1010.4,   80.7, -999.0